Regional Weather Roundup
Issued by NWS

Home | Current Version | Previous Version | Graphics & Text | Print | Product List | Glossary On
Versions: 1 2 3 4 5 6 7 8 9 10 11 12 13 14 15 16 17 18 19 20 21 22 23 24 25 26 27 28 29 30 31 32 33 34 35 36 37 38 39 40 41 42 43 44 45 46 47 48 49 50
000
ASUS43 KMPX 210110
RWRMN
WEATHER ROUNDUP FOR MINNESOTA
NATIONAL WEATHER SERVICE TWIN CITIES/CHANHASSEN MN
800 PM CDT SAT SEP 20 2014


NOTE: "FAIR" INDICATES FEW OR NO CLOUDS BELOW 12,000 FEET WITH NO
SIGNIFICANT WEATHER AND/OR OBSTRUCTIONS TO VISIBILITY. N/A MEANS
CURRENT SKY AND/OR WEATHER CONDITIONS ARE NOT AVAILABLE.

MNZ060>063-068>070-210200-
   Twin Cities Metro

CITY           SKY/WX    TMP DP  RH WIND       PRES   REMARKS
TWIN CITIES    MOCLDY    59  56  89 W13G18    29.81R
ST PAUL        MOCLDY    60  55  83 NW16      29.80R
CRYSTAL        PTCLDY    60  55  83 W10       29.80R
BLAINE         PTCLDY    61  57  88 W8        29.80R
LAKEVILLE      MOCLDY    55  55 100 W9        29.82R
EDEN PRAIRIE   PTCLDY    60  56  86 NW13G20   29.81R
SOUTH ST PAUL  MOCLDY    60  56  85 NW12      29.80R
LAKE ELMO      FAIR      59  55  88 NW10G16   29.80R
$$
MNZ001>005-007-008-013>017-022>024-027-028-210200-
   Northwest Minnesota

CITY           SKY/WX    TMP DP  RH WIND       PRES   REMARKS
BEMIDJI        LGT RAIN  51  49  93 NW13      29.83R
HALLOCK        PTCLDY    54  52  94 NW3       29.87R
ROSEAU         MOCLDY    52  46  82 NW6       29.85R
WARROAD        RAIN      52  48  87 NW8       29.86R
THIEF RVR FALL CLOUDY    55  52  88 N10       29.86R
CROOKSTON      MOCLDY    57  52  82 N7        29.87R
FOSSTON        MOCLDY    54  48  82 N12G17    29.86R
DETROIT LAKES  PTCLDY    59  50  72 NW16      29.87R
MOORHEAD       PTCLDY    57  54  88 N8        29.88R
PARK RAPIDS    CLOUDY    57  49  74 NW21      29.82R
MAHNOMEN       CLOUDY    56  49  77 NW9       29.85R
$$
MNZ006-009>011-018-025>026-210200-
   North Central Minnesota

CITY           SKY/WX    TMP DP  RH WIND       PRES   REMARKS
BAUDETTE       LGT RAIN  52  49  89 NW10      29.81R
FLAG ISLAND    LGT RAIN  54  50  87 NW15      29.82R
INTL FALLS     CLOUDY    55  49  80 NW10      29.75R
WASKISH        LGT RAIN  50  48  93 N8        29.82R
BIG FORK       RAIN      50  46  87 N9G18     29.76R
LONGVILLE      LGT RAIN  55  50  82 NW10G26   29.75R
GRAND RAPIDS   CLOUDY    54  50  87 W15G24    29.70S
CRANE LAKE     CLOUDY    54  50  87 CALM      29.73R
ORR            CLOUDY    54  48  82 CALM      29.69R
COOK           CLOUDY    55  50  82 CALM      29.71R
WALKER         CLOUDY    55  48  76 NW14G30   29.79R
$$
MNZ012-019>021-037-210200-
   Northeast Minnesota

CITY           SKY/WX    TMP DP  RH WIND       PRES   REMARKS
DULUTH         RAIN      55  51  86 NW13      29.69S FOG
ELY            CLOUDY    52  48  87 CALM      29.71S
HIBBING        HVY RAIN  55  53  93 W3        29.70S FOG
EVELETH        LGT RAIN  54  52  94 W8        29.70S
DULUTH HARBOR  LGT RAIN  55  54  94 W8G16     29.71R
TWO HARBORS    CLOUDY    55  48  76 W5        29.68R
SILVER BAY     CLOUDY    54  54 100 CALM      29.67S
GRAND MARAIS     N/A     58  52  80 E6        29.69R
G MARAIS ARPRT MOCLDY    50  46  87 CALM      29.72S
$$
MNZ029>031-032-039>041-046>048-054>057-064-210200-
   West Central Minnesota

CITY           SKY/WX    TMP DP  RH WIND       PRES   REMARKS
FERGUS FALLS   CLEAR     55  48  76 W5        29.87R
WHEATON        CLEAR     59  50  72 W6        29.91R
MORRIS         CLEAR     57  52  82 W5        29.88S
ALEXANDRIA     CLEAR     58  50  75 NW10      29.88R
ELBOW LAKE     FAIR      56  51  85 W7        29.87S
WADENA         CLEAR     57  48  72 W10       29.84R
GLENWOOD       CLEAR     57  52  82 W8        29.88R
APPLETON       PTCLDY    59  52  77 W7        29.90S
BENSON         CLEAR     55  52  88 NW6       29.89S
ORTONVILLE     PTCLDY    63  48  59 NW9       29.92R
MADISON        CLEAR     63  52  67 NW8       29.92S
WILLMAR        FAIR      61  52  72 NW8       29.90R
$$
MNZ033>034-036-042>043-049>051-058-059-210200-
   Central Minnesota

CITY           SKY/WX    TMP DP  RH WIND       PRES   REMARKS
ST CLOUD       CLEAR     60  49  66 NW18      29.82R
SAUK CENTRE    FAIR      55  50  83 W6        29.86R
PAYNESVILLE    CLEAR     55  50  85 SW8       29.87R
AITKIN         CLOUDY    57  52  82 W5        29.74F
PINE RIVER     MOCLDY    55  48  76 W9G17     29.82R
BRAINERD       MOCLDY    56  49  77 W14G23    29.80R
STAPLES        CLEAR     55  48  76 W10       29.82S
LONG PRAIRIE   FAIR      55  46  71 W7        29.85R
LITTLE FALLS   CLEAR     55  46  71 W6        29.83R
LITCHFIELD     CLEAR     61  55  82 NW13      29.88R
BUFFALO        PTCLDY    59  52  78 W10       29.85R
MAPLE LAKE     CLEAR     59  54  82 W9        29.85R
$$
MNZ037-044-045-052-053-210200-
   East Central Minnesota

CITY           SKY/WX    TMP DP  RH WIND       PRES   REMARKS
PRINCETON      PTCLDY    59  55  88 W16       29.80R
MORA           PTCLDY    55  50  82 W12G20    29.78S
CAMBRIDGE      PTCLDY    61  50  67 W9        29.77R
RUSH CITY      MOCLDY    56  53  89 CALM      29.77R
MOOSE LAKE     CLOUDY    55  52  88 W6        29.72R
HINCKLEY       CLOUDY    55  54  94 W7        29.76R
CLOQUET        DRIZZLE   54  52  94 W5        29.71F
MCGREGOR       CLOUDY    55  52  88 W18G24    29.74S
$$
MNZ071>073-080-081-089-090-097-098-210200-
   Southwest Minnesota

CITY           SKY/WX    TMP DP  RH WIND       PRES   REMARKS
MONTEVIDEO     CLEAR     61  55  82 N7        29.91S
GRANITE FALLS  CLEAR     58  54  86 W8        29.93R
CANBY          CLEAR     60  51  73 NW8       29.95R
MARSHALL       CLEAR     63  50  63 NW9       29.93R
REDWOOD FALLS  CLEAR     60  56  86 NW9       29.90R
OLIVIA         CLEAR     59  54  82 NW9       29.89R
PIPESTONE      CLEAR     66  45  45 N17G25    29.98R
WINDOM         CLEAR     61  54  77 NW15      29.93R
WORTHINGTON    CLEAR     63  52  67 N13       29.96R
JACKSON        PTCLDY    61  52  72 NW15G29   29.94R
TRACY          CLEAR     60  56  85 CALM      29.95R
SLAYTON        CLEAR     60  54  80 CALM      29.97R
$$
MNZ065>067-074>077-082>085-091>093-210200-
   South Central Minnesota

CITY           SKY/WX    TMP DP  RH WIND       PRES   REMARKS
MANKATO        PTCLDY    59  52  77 W13       29.87R
NEW ULM        CLEAR     59  57  94 W8        29.90R
ST JAMES       PTCLDY    61  57  88 NW10      29.92R
FAIRMONT       PTCLDY    61  52  72 NW16G26   29.91R
GLENCOE        CLEAR     60  55  82 W13       29.86R
FARIBAULT      CLOUDY    61  55  82 W10       29.84R
OWATONNA       CLOUDY    59  55  88 W10       29.85R
WASECA         MOCLDY    55  52  88 NW8       29.88R
ALBERT LEA     CLOUDY    57  57 100 NW6       29.85R
$$
MNZ078>079-086>088-094>096-210200-
   Southeast Minnesota

CITY           SKY/WX    TMP DP  RH WIND       PRES   REMARKS
ROCHESTER      LGT RAIN  59  57  93 N7        29.80F
RED WING       CLOUDY    61  57  88 NW6       29.76R
STANTON        CLOUDY    60  57  88 W9        29.80R
DODGE CENTER   CLOUDY    59  57  94 NW6       29.81F
WINONA         RAIN      61  57  88 NW16G29   29.81R
AUSTIN         RAIN      57  57 100 NW6       29.83S
PRESTON        RAIN      59  59 100 NW13G28   29.82R
$$
ABBREVIATIONS USED IN REMARKS
   TC - TEMPERATURES IN CELSIUS
  WCI - WIND CHILL INDEX
   HX - HEAT INDEX
  VSB - VISIBILITY
$$



USA.gov is the U.S. government's official web portal to all federal, state and local government web resources and services.